HP1MRA-15 Weather Reports


time (UTC)temp
C
wind
direction
speed
KPH
gust
KPH
rain 1hr
cm
rain 24hr
cm
rain mn
cm
humidity
%
barometer
mb
20260507142950 34 135 0.0 8.0 0.00 0.00 0.00 64 1003.9
20260507142450 -17 180 3.2 9.7 0.00 0.00 0.00 1003.9
20260507141950 33 0 0.0 4.8 0.00 0.00 0.00 68 1003.9
20260507141450 33 0 0.0 8.0 0.00 0.00 0.00 67 1004.0
20260507140950 33 225 3.2 9.7 0.00 0.00 0.00 65 1003.9
20260507140450 33 45 3.2 8.0 0.00 0.00 0.00 68 1003.8
20260507135950 33 225 3.2 4.8 0.00 0.00 0.00 69 1003.7
20260507135449 33 90 0.0 3.2 0.00 0.00 0.00 72 1003.7
20260507134949 33 45 0.0 3.2 0.00 0.00 0.00 73 1003.6
20260507134450 32 45 0.0 3.2 0.00 0.00 0.00 75 1003.7
20260507133949 31 45 0.0 3.2 0.00 0.00 0.00 76 1003.6
20260507133450 31 45 0.0 3.2 0.00 0.00 0.00 77 1003.5
20260507132950 31 90 0.0 3.2 0.00 0.00 0.00 77 1003.4
20260507132449 30 90 0.0 3.2 0.00 0.00 0.00 78 1003.4
20260507131950 30 135 0.0 3.2 0.00 0.00 0.00 78 1003.5
20260507131449 30 135 0.0 3.2 0.00 0.00 0.00 80 1003.3
20260507130949 30 90 0.0 3.2 0.00 0.00 0.00 81 1003.4
20260507130450 30 0 0.0 0.0 0.00 0.00 0.00 82 1003.5
20260507125949 29 0 0.0 0.0 0.00 0.00 0.00 82 1003.6
20260507125449 29 0 0.0 0.0 0.00 0.00 0.00 82 1003.6
20260507124949 28 0 0.0 0.0 0.00 0.00 0.00 83 1003.6
20260507124449 28 0 0.0 0.0 0.00 0.00 0.00 83 1003.5
20260507123950 28 0 0.0 3.2 0.00 0.00 0.00 84 1003.3
20260507123449 28 0 0.0 1.6 0.00 0.00 0.00 84 1003.3
20260507122949 27 135 0.0 1.6 0.00 0.00 0.00 83 1003.3
20260507122449 28 180 0.0 1.6 0.00 0.00 0.00 83 1003.3
20260507121949 28 135 0.0 1.6 0.00 0.00 0.00 83 1003.4
20260507121449 28 45 0.0 0.0 0.00 0.00 0.00 83 1003.3
20260507120949 28 45 0.0 3.2 0.00 0.00 0.00 83 1003.3
20260507120449 28 0 1.6 3.2 0.00 0.00 0.00 83 1003.1
20260507115949 28 45 0.0 1.6 0.00 0.00 0.00 83 1003.1
20260507115449 28 45 0.0 3.2 0.00 0.00 0.00 84 1003.0
20260507114948 27 0 0.0 3.2 0.00 0.00 0.00 84 1002.9
20260507114449 27 45 0.0 1.6 0.00 0.00 0.00 85 1002.8
20260507113449 27 0 0.0 3.2 0.00 0.00 0.00 86 1002.7
20260507112948 26 45 1.6 3.2 0.00 0.00 0.00 86 1002.7
20260507112449 26 0 0.0 3.2 0.00 0.00 0.00 86 1002.7
20260507111948 -17 0 0.0 3.2 0.00 0.00 0.00 1002.6
20260507111449 26 0 0.0 1.6 0.00 0.00 0.00 86 1002.4
20260507110948 26 45 0.0 3.2 0.00 0.00 0.00 86 1002.4
20260507110448 26 0 3.2 3.2 0.00 0.00 0.00 86 1002.3
20260507105948 26 45 1.6 3.2 0.00 0.00 0.00 86 1002.1
20260507104948 26 45 3.2 4.8 0.00 0.00 0.00 85 1002.1
20260507104448 26 45 3.2 3.2 0.00 0.00 0.00 85 1002.0
20260507103948 26 45 1.6 3.2 0.00 0.00 0.00 85 1002.1
20260507103448 26 45 0.0 3.2 0.00 0.00 0.00 85 1002.1
20260507102948 26 45 1.6 3.2 0.00 0.00 0.00 85 1002.0
20260507102448 26 45 1.6 3.2 0.00 0.00 0.00 85 1001.9
20260507101948 26 45 3.2 3.2 0.00 0.00 0.00 85 1001.9
20260507101448 26 90 1.6 3.2 0.00 0.00 0.00 84 1001.8
20260507100947 26 90 1.6 3.2 0.00 0.00 0.00 85 1001.8
20260507100448 26 45 0.0 3.2 0.00 0.00 0.00 85 1001.9
20260507095946 26 90 1.6 3.2 0.00 0.00 0.00 85 1001.9
20260507095447 26 90 0.0 3.2 0.00 0.00 0.00 85 1001.9
20260507094947 26 45 1.6 3.2 0.00 0.00 0.00 85 1002.0
20260507094447 26 90 1.6 3.2 0.00 0.00 0.00 86 1002.0
20260507093946 26 45 1.6 3.2 0.00 0.00 0.00 86 1002.0
20260507093447 26 45 1.6 3.2 0.00 0.00 0.00 86 1002.0
20260507092945 26 45 1.6 3.2 0.00 0.00 0.00 85 1002.0
20260507092446 26 45 1.6 4.8 0.00 0.00 0.00 85 1001.9
20260507091946 26 90 0.0 3.2 0.00 0.00 0.00 85 1001.9
20260507091444 26 45 0.0 0.0 0.00 0.00 0.00 85 1002.0
20260507090943 26 90 0.0 0.0 0.00 0.00 0.00 85 1002.0
20260507085906 26 45 0.0 0.0 0.00 0.00 0.00 85 1002.1
20260507084906 26 90 0.0 4.8 0.00 0.00 0.00 85 1002.2
20260507084406 26 45 3.2 4.8 0.00 0.00 0.00 85 1002.2
20260507083906 26 45 3.2 3.2 0.00 0.00 0.00 84 1002.2
20260507083406 26 135 0.0 0.0 0.00 0.00 0.00 85 1002.1
20260507082905 26 135 0.0 1.6 0.00 0.00 0.00 85 1002.0
20260507082406 26 180 0.0 1.6 0.00 0.00 0.00 84 1002.1
20260507081905 26 45 0.0 0.0 0.00 0.00 0.00 84 1001.9
20260507081406 26 45 0.0 0.0 0.00 0.00 0.00 84 1002.0
20260507080905 26 90 0.0 1.6 0.00 0.00 0.00 84 1001.9
20260507080405 26 90 0.0 3.2 0.00 0.00 0.00 84 1002.1
20260507075906 26 135 0.0 3.2 0.00 0.00 0.00 84 1002.2
20260507075405 26 90 0.0 0.0 0.00 0.00 0.00 84 1002.2
20260507074906 26 90 0.0 3.2 0.00 0.00 0.00 84 1002.2
20260507074405 26 45 0.0 3.2 0.00 0.00 0.00 83 1002.3
20260507073906 27 45 3.2 3.2 0.00 0.00 0.00 82 1002.2
20260507073405 27 45 0.0 3.2 0.00 0.00 0.00 82 1002.3
20260507072905 27 45 0.0 0.0 0.00 0.00 0.00 82 1002.4
20260507072405 27 0 0.0 0.0 0.00 0.00 0.00 81 1002.4
20260507071905 27 0 0.0 0.0 0.00 0.00 0.00 81 1002.5
20260507071406 27 0 0.0 3.2 0.00 0.00 0.00 81 1002.6
20260507070905 27 0 0.0 3.2 0.00 0.00 0.00 81 1002.6
20260507070404 27 270 0.0 3.2 0.00 0.00 0.00 81 1002.7
20260507065905 27 45 0.0 0.0 0.00 0.00 0.00 81 1002.8
20260507065405 27 45 0.0 0.0 0.00 0.00 0.00 81 1002.8
20260507064905 27 45 0.0 3.2 0.00 0.00 0.00 81 1002.9
20260507064405 27 45 0.0 3.2 0.00 0.00 0.00 81 1003.0
20260507063904 27 45 0.0 3.2 0.00 0.00 0.00 81 1003.1
20260507063405 27 45 1.6 3.2 0.00 0.00 0.00 81 1003.0
20260507062905 27 45 0.0 3.2 0.00 0.00 0.00 81 1003.0
20260507062405 27 45 1.6 3.2 0.00 0.00 0.00 81 1003.0
20260507061905 27 90 0.0 3.2 0.00 0.00 0.00 81 1003.1
20260507061404 27 45 0.0 1.6 0.00 0.00 0.00 80 1003.1
20260507060905 27 90 0.0 1.6 0.00 0.00 0.00 80 1003.2
20260507060404 27 0 0.0 0.0 0.00 0.00 0.00 80 1003.2
20260507055905 27 0 0.0 0.0 0.00 0.00 0.00 80 1003.2
20260507055405 27 0 0.0 1.6 0.00 0.00 0.00 80 1003.3
20260507054904 27 0 0.0 1.6 0.00 0.00 0.00 81 1003.2
20260507054405 27 0 0.0 0.0 0.00 0.00 0.00 81 1003.4
20260507053902 27 0 0.0 3.2 0.00 0.00 0.00 81 1003.4
20260507053403 27 0 1.6 3.2 0.00 0.00 0.00 81 1003.4
20260507052902 27 90 0.0 1.6 0.00 0.00 0.00 81 1003.5
20260507052401 27 90 0.0 0.0 0.00 0.00 0.00 81 1003.5
20260507051859 27 90 0.0 0.0 0.00 0.00 0.00 81 1003.5
20260507051125 27 90 0.0 1.6 0.00 0.00 0.00 80 1003.5
20260507050625 27 45 0.0 3.2 0.00 0.00 0.00 80 1003.5
20260507050124 27 45 1.6 3.2 0.00 0.00 0.00 80 1003.5
20260507045625 27 135 0.0 3.2 0.00 0.00 0.00 79 1003.6
20260507045124 27 45 1.6 3.2 0.00 0.00 0.00 79 1003.5
20260507044625 27 0 0.0 3.2 0.00 0.00 0.00 79 1003.5
20260507044124 27 0 1.6 6.4 0.00 0.00 0.00 80 1003.3
20260507043625 27 0 3.2 8.0 0.00 0.00 0.00 79 1003.5
20260507043124 27 0 3.2 6.4 0.00 0.00 0.00 79 1003.4
20260507042624 27 0 3.2 4.8 0.00 0.00 0.00 79 1003.4
20260507042124 27 45 3.2 6.4 0.00 0.00 0.00 79 1003.5
20260507041624 28 45 3.2 4.8 0.00 0.00 0.00 78 1003.5
20260507041125 28 90 0.0 4.8 0.00 0.00 0.00 78 1003.4
20260507040624 28 0 3.2 6.4 0.00 0.00 0.00 78 1003.4
20260507040124 28 45 3.2 6.4 0.00 0.00 0.00 78 1003.4
20260507035624 28 0 1.6 6.4 0.00 0.00 0.00 78 1003.4
20260507035124 28 0 4.8 8.0 0.00 0.00 0.00 78 1003.4
20260507034624 28 0 3.2 4.8 0.00 0.00 0.00 78 1003.4
20260507034124 28 45 0.0 6.4 0.00 0.00 0.00 78 1003.4
20260507033624 28 0 3.2 6.4 0.00 0.00 0.00 78 1003.4
20260507033124 28 45 1.6 6.4 0.00 0.00 0.00 78 1003.3
20260507032624 28 0 3.2 8.0 0.00 0.00 0.00 78 1003.3
20260507032124 28 0 3.2 8.0 0.00 0.00 0.00 78 1003.3
20260507031624 28 0 3.2 8.0 0.00 0.00 0.00 78 1003.3
20260507031123 28 0 3.2 6.4 0.00 0.00 0.00 77 1003.2
20260507030624 28 45 1.6 3.2 0.00 0.00 0.00 77 1003.3
20260507030124 28 0 1.6 3.2 0.00 0.00 0.00 77 1003.1
20260507025623 28 0 1.6 3.2 0.00 0.00 0.00 77 1003.1
20260507025124 28 0 1.6 4.8 0.00 0.00 0.00 77 1003.1
20260507024623 28 0 1.6 4.8 0.00 0.00 0.00 77 1003.0
20260507024124 28 0 1.6 3.2 0.00 0.00 0.00 77 1002.9
20260507023624 28 45 1.6 3.2 0.00 0.00 0.00 78 1002.9
20260507023123 28 45 1.6 4.8 0.00 0.00 0.00 78 1002.9
20260507022624 28 0 3.2 6.4 0.00 0.00 0.00 78 1002.8
20260507022123 28 0 3.2 6.4 0.00 0.00 0.00 78 1002.8
20260507021623 28 0 3.2 4.8 0.00 0.00 0.00 78 1002.8
20260507021124 28 0 3.2 4.8 0.00 0.00 0.00 78 1002.8
20260507020624 28 45 3.2 6.4 0.00 0.00 0.00 77 1002.7
20260507020124 28 45 3.2 6.4 0.00 0.00 0.00 77 1002.6
20260507015623 28 45 3.2 6.4 0.00 0.00 0.00 77 1002.6
20260507015123 29 45 3.2 4.8 0.00 0.00 0.00 78 1002.5
20260507014623 29 0 1.6 4.8 0.00 0.00 0.00 79 1002.5
20260507014123 29 45 3.2 6.4 0.00 0.00 0.00 79 1002.3
20260507013623 29 0 3.2 4.8 0.00 0.00 0.00 79 1002.4
20260507013123 29 0 3.2 4.8 0.00 0.00 0.00 79 1002.3
20260507012624 29 0 0.0 1.6 0.00 0.00 0.00 79 1002.3
20260507012123 29 0 0.0 3.2 0.00 0.00 0.00 79 1002.2
20260507011623 29 0 1.6 4.8 0.00 0.00 0.00 80 1002.2
20260507011122 29 0 3.2 6.4 0.00 0.00 0.00 80 1002.2
20260507010623 29 45 0.0 3.2 0.00 0.00 0.00 80 1002.2
20260507010122 29 45 0.0 3.2 0.00 0.00 0.00 80 1002.1
20260507005623 -17 45 1.6 4.8 0.00 0.00 0.00 1002.0
20260507005121 30 45 3.2 6.4 0.00 0.00 0.00 80 1001.9
20260507004622 30 0 3.2 6.4 0.00 0.00 0.00 80 1001.9
20260507004122 30 0 3.2 8.0 0.00 0.00 0.00 80 1001.8
20260507003621 30 0 3.2 4.8 0.00 0.00 0.00 80 1001.8
20260507003122 30 0 3.2 8.0 0.00 0.00 0.00 80 1001.9
20260507002622 30 0 3.2 6.4 0.00 0.00 0.00 79 1001.8
20260507002122 30 0 1.6 4.8 0.00 0.00 0.00 79 1001.8
20260507001621 30 0 1.6 3.2 0.00 0.00 0.00 79 1001.8
20260507001122 30 45 0.0 3.2 0.00 0.00 0.00 79 1001.8
20260507000621 30 225 0.0 3.2 0.00 0.00 0.00 79 1001.8
20260507000121 30 270 0.0 3.2 0.00 0.00 0.00 79 1001.7
20260506235622 30 270 1.6 3.2 0.00 0.00 0.00 79 1001.7
20260506235121 30 180 0.0 1.6 0.00 0.00 0.00 78 1001.6
20260506234621 30 0 0.0 1.6 0.00 0.00 0.00 77 1001.5
20260506234121 30 0 0.0 3.2 0.00 0.00 0.00 77 1001.5
20260506233621 30 0 0.0 3.2 0.00 0.00 0.00 77 1001.4
20260506233121 30 0 1.6 3.2 0.00 0.00 0.00 77 1001.4
20260506232622 30 45 1.6 4.8 0.00 0.00 0.00 76 1001.5
20260506232119 30 0 3.2 4.8 0.00 0.00 0.00 76 1001.6
20260506231619 30 45 1.6 4.8 0.00 0.00 0.00 75 1001.6
20260506231119 30 45 1.6 3.2 0.00 0.00 0.00 75 1001.6
20260506230618 31 45 3.2 3.2 0.00 0.00 0.00 75 1001.6
20260506230117 31 45 3.2 3.2 0.00 0.00 0.00 75 1001.5
20260506225035 31 45 3.2 4.8 0.00 0.00 0.00 76 1001.4
20260506224534 31 45 3.2 4.8 0.00 0.00 0.00 76 1001.4
20260506224034 30 0 3.2 4.8 0.00 0.00 0.00 77 1001.3
20260506223534 30 45 1.6 4.8 0.00 0.00 0.00 77 1001.2
20260506223034 30 45 3.2 8.0 0.00 0.00 0.00 76 1001.2
20260506222535 31 45 3.2 8.0 0.00 0.00 0.00 77 1001.2
20260506222034 31 45 4.8 8.0 0.00 0.00 0.00 77 1001.2
20260506221534 31 45 3.2 3.2 0.00 0.00 0.00 76 1001.1
20260506221034 31 45 0.0 3.2 0.00 0.00 0.00 75 1001.0
20260506220534 31 0 0.0 0.0 0.00 0.00 0.00 75 1001.0
20260506220034 31 0 0.0 3.2 0.00 0.00 0.00 75 1000.8
20260506215534 31 135 1.6 4.8 0.00 0.00 0.00 74 1000.8
20260506215034 31 90 3.2 4.8 0.00 0.00 0.00 74 1000.7
20260506214534 32 45 1.6 3.2 0.00 0.00 0.00 74 1000.9
20260506214033 32 0 1.6 6.4 0.00 0.00 0.00 73 1000.9
20260506213534 32 45 3.2 4.8 0.00 0.00 0.00 73 1000.8
20260506213034 32 0 3.2 8.0 0.00 0.00 0.00 73 1000.9
20260506212534 32 45 0.0 6.4 0.00 0.00 0.00 71 1001.1
20260506212034 32 135 1.6 3.2 0.00 0.00 0.00 75 1001.1
20260506211533 32 90 0.0 1.6 0.00 0.00 0.00 74 1000.9
20260506211034 32 0 0.0 3.2 0.00 0.00 0.00 74 1001.0
20260506210533 32 90 0.0 3.2 0.00 0.00 0.00 74 1001.0
20260506210033 32 0 0.0 3.2 0.00 0.00 0.00 74 1001.0
20260506205534 32 90 3.2 6.4 0.00 0.00 0.00 75 1000.9
20260506205033 32 45 3.2 8.0 0.00 0.00 0.00 73 1000.9
20260506204533 32 0 6.4 12.9 0.00 0.00 0.00 72 1000.7
20260506204033 32 45 6.4 14.5 0.00 0.00 0.00 69 1000.8
20260506203533 33 90 8.0 12.9 0.00 0.00 0.00 65 1000.8
20260506203036 33 45 8.0 16.1 0.00 0.00 0.00 63 1000.7
20260506202533 33 45 11.3 16.1 0.00 0.00 0.00 64 1000.7
20260506202035 33 0 8.0 20.9 0.00 0.00 0.00 65 1000.8
20260506201533 -17 90 8.0 17.7 0.00 0.00 0.00 1000.8
20260506201033 32 45 9.7 17.7 0.00 0.00 0.00 67 1000.7
20260506200533 32 45 6.4 12.9 0.00 0.00 0.00 69 1000.7
20260506200033 32 45 6.4 12.9 0.00 0.00 0.00 69 1000.9
20260506195533 32 90 3.2 12.9 0.00 0.00 0.00 69 1001.1
20260506195033 32 90 6.4 9.7 0.00 0.00 0.00 69 1001.1
20260506194533 32 45 3.2 12.9 0.00 0.00 0.00 67 1001.1
20260506194032 32 45 8.0 17.7 0.00 0.00 0.00 66 1001.1
20260506193533 33 90 8.0 24.1 0.00 0.00 0.00 63 1001.1
20260506193033 35 45 14.5 22.5 0.00 0.00 0.00 60 1000.9
20260506192532 36 45 9.7 20.9 0.00 0.00 0.00 59 1001.1
20260506192032 36 90 8.0 14.5 0.00 0.00 0.00 58 1001.2
20260506191533 36 90 1.6 6.4 0.00 0.00 0.00 58 1001.2
20260506191033 35 270 1.6 3.2 0.00 0.00 0.00 59 1001.3
20260506190532 35 135 1.6 4.8 0.00 0.00 0.00 59 1001.4
20260506190033 36 180 3.2 9.7 0.00 0.00 0.00 56 1001.5
20260506185533 -17 180 6.4 14.5 0.00 0.00 0.00 1001.7
20260506185032 39 225 8.0 12.9 0.00 0.00 0.00 51 1001.6
20260506184533 40 315 0.0 4.8 0.00 0.00 0.00 51 1001.7
20260506184032 38 180 0.0 9.7 0.00 0.00 0.00 52 1001.7
20260506183532 38 135 0.0 4.8 0.00 0.00 0.00 51 1001.8
20260506183033 38 225 4.8 11.3 0.00 0.00 0.00 50 1002.1
20260506182532 38 225 3.2 8.0 0.00 0.00 0.00 51 1002.2
20260506182032 37 270 0.0 8.0 0.00 0.00 0.00 54 1002.3
20260506181532 37 225 3.2 9.7 0.00 0.00 0.00 53 1002.3
20260506181032 36 225 0.0 11.3 0.00 0.00 0.00 55 1002.3
20260506180532 36 225 6.4 14.5 0.00 0.00 0.00 54 1002.4
20260506180032 36 225 3.2 11.3 0.00 0.00 0.00 56 1002.6
20260506175532 36 225 3.2 8.0 0.00 0.00 0.00 55 1002.7
20260506175031 37 180 4.8 11.3 0.00 0.00 0.00 53 1002.9
20260506174532 37 225 3.2 8.0 0.00 0.00 0.00 54 1002.9
20260506174032 37 225 3.2 9.7 0.00 0.00 0.00 55 1003.0
20260506173532 37 180 1.6 9.7 0.00 0.00 0.00 56 1003.0
20260506173032 37 180 0.0 4.8 0.00 0.00 0.00 58 1003.0
20260506172032 37 180 0.0 4.8 0.00 0.00 0.00 58 1003.1
20260506171532 37 180 0.0 8.0 0.00 0.00 0.00 59 1003.2
20260506171032 36 225 4.8 8.0 0.00 0.00 0.00 60 1003.2
20260506170532 36 270 0.0 9.7 0.00 0.00 0.00 60 1003.2
20260506170031 36 225 4.8 9.7 0.00 0.00 0.00 58 1003.1
20260506165532 36 270 1.6 11.3 0.00 0.00 0.00 60 1003.1
20260506165031 36 0 0.0 8.0 0.00 0.00 0.00 60 1003.1
20260506164532 36 225 6.4 8.0 0.00 0.00 0.00 58 1003.2
20260506164031 36 270 3.2 9.7 0.00 0.00 0.00 58 1003.1
20260506163531 36 225 3.2 9.7 0.00 0.00 0.00 59 1003.2
20260506163031 36 270 0.0 8.0 0.00 0.00 0.00 60 1003.3
20260506162531 35 225 3.2 11.3 0.00 0.00 0.00 61 1003.3
20260506162032 35 45 0.0 12.9 0.00 0.00 0.00 61 1003.4
20260506161531 36 180 8.0 12.9 0.00 0.00 0.00 58 1003.5
20260506161031 36 315 0.0 8.0 0.00 0.00 0.00 62 1003.6
20260506160531 36 135 1.6 6.4 0.00 0.00 0.00 60 1003.6
20260506160031 36 90 3.2 6.4 0.00 0.00 0.00 59 1003.7
20260506155531 36 225 3.2 8.0 0.00 0.00 0.00 61 1003.6
20260506155031 36 315 0.0 4.8 0.00 0.00 0.00 64 1003.6
20260506154531 35 45 0.0 3.2 0.00 0.00 0.00 62 1003.6
20260506154031 36 45 1.6 6.4 0.00 0.00 0.00 62 1003.6
20260506153530 35 45 3.2 6.4 0.00 0.00 0.00 64 1003.6
20260506153031 35 225 0.0 6.4 0.00 0.00 0.00 63 1003.7
20260506152530 35 270 1.6 6.4 0.00 0.00 0.00 65 1003.9
20260506152031 35 225 0.0 4.8 0.00 0.00 0.00 66 1003.9
20260506151530 35 45 0.0 4.8 0.00 0.00 0.00 68 1004.0
20260506151031 35 0 3.2 4.8 0.00 0.00 0.00 69 1004.0
20260506150530 34 0 0.0 4.8 0.00 0.00 0.00 70 1004.0
20260506150031 34 0 0.0 8.0 0.00 0.00 0.00 69 1004.0
20260506145531 33 0 3.2 8.0 0.00 0.00 0.00 69 1004.1
20260506145030 33 45 1.6 4.8 0.00 0.00 0.00 70 1004.2
20260506144531 33 0 1.6 3.2 0.00 0.00 0.00 71 1004.2
20260506144031 33 180 0.0 3.2 0.00 0.00 0.00 72 1004.2
20260506143530 33 225 0.0 3.2 0.00 0.00 0.00 72 1004.2